Truth Or Consequences, NM

8:14 AM MDT on April 19, 2018 (GMT -0600)
Truth Or Consequences Municipal

Weather History for KTCS - December, 2012

Change the Weather History Date:

Sunday, December 2, 2012

  Actual Average Record
Temperature  
Mean Temperature 54 °F -  
Max Temperature 70 °F 56 °F 73 °F (2008)
Min Temperature 37 °F 30 °F 23 °F (2004)
Degree Days  
Heating Degree Days 11    
Month to date heating degree days 20  
Since 1 July heating degree days 446  
Growing Degree Days 4 (Base 50)    
Moisture  
Dew Point 12 °F    
Average Humidity 19    
Maximum Humidity 27    
Minimum Humidity 11    
Precipitation  
Precipitation 0.00 in - 0.48 in (2011)
Month to date precipitation 0.00  
Year to date precipitation 2.60  
Sea Level Pressure  
Sea Level Pressure 29.99 in    
Wind  
Wind Speed 5 mph (WSW)    
Max Wind Speed 13 mph    
Max Gust Speed 17 mph    
Visibility 10 miles    
Events      
T = Trace of Precipitation, MM = Missing Value Source: NWS Daily Summary

Daily Weather History Graph

Daily Weather History Graph

Search for Another Location

Airport or City:

Astronomy

Dec. 02, 2012 Rise Set
Actual Time 6:55 AM MST 5:01 PM MST
Civil Twilight 6:28 AM MST 5:28 PM MST
Nautical Twilight 5:58 AM MST 5:59 PM MST
Astronomical Twilight 5:28 AM MST 6:29 PM MST
Moon 8:46 PM MST (12/2) 9:51 AM MST (12/2)
Length of Visible Light 10h 59m
Length of Day
10h 05m
Waning Gibbous, 85% of the Moon is Illuminated
Dec 2
Waning Gibbous
Dec 6
Last Quarter
Dec 13
New
Dec 19
First Quarter
Dec 28
Full

Hourly Weather History & Observations

Time (MST) Temp. Windchill Dew Point Humidity Pressure Visibility Wind Dir Wind Speed Gust Speed Precip Events Conditions
12:53 AM 46.0 °F 43.1 °F 9.0 °F 22% 30.01 in 10.0 mi NW 5.8 mph - N/A   Clear
1:53 AM 42.1 °F 40.2 °F 8.1 °F 25% 30.01 in 10.0 mi NNW 3.5 mph - N/A   Clear
2:53 AM 42.1 °F 37.1 °F 8.1 °F 25% 30.01 in 10.0 mi WNW 8.1 mph - N/A   Clear
3:53 AM 43.0 °F 38.8 °F 9.0 °F 25% 30.00 in 10.0 mi West 6.9 mph - N/A   Clear
4:53 AM 45.0 °F 41.2 °F 10.0 °F 24% 30.01 in 10.0 mi NW 6.9 mph - N/A   Clear
5:53 AM 39.0 °F - 9.0 °F 29% 30.06 in 10.0 mi Calm Calm - N/A   Clear
6:53 AM 42.1 °F 37.1 °F 10.0 °F 27% 30.08 in 10.0 mi NW 8.1 mph - N/A   Clear
7:53 AM 44.1 °F - 12.0 °F 27% 30.08 in 10.0 mi Calm Calm - N/A   Clear
8:53 AM 50.0 °F - 12.0 °F 22% 30.09 in 10.0 mi NE 4.6 mph - N/A   Clear
9:53 AM 53.1 °F - 12.9 °F 20% 30.08 in 10.0 mi East 3.5 mph - N/A   Clear
10:53 AM 55.0 °F - 14.0 °F 20% 30.06 in 10.0 mi Calm Calm - N/A   Clear
11:53 AM 60.1 °F - 14.0 °F 16% 30.02 in 10.0 mi Calm Calm - N/A   Clear
12:53 PM 64.9 °F - 16.0 °F 15% 29.97 in 10.0 mi SSE 8.1 mph - N/A   Clear
1:53 PM 66.0 °F - 17.1 °F 15% 29.95 in 10.0 mi SSE 3.5 mph - N/A   Clear
2:53 PM 69.1 °F - 19.9 °F 15% 29.91 in 10.0 mi SSW 5.8 mph - N/A   Clear
3:53 PM 70.0 °F - 19.9 °F 15% 29.88 in 10.0 mi South 6.9 mph - N/A   Clear
4:53 PM 69.1 °F - 12.9 °F 11% 29.88 in 10.0 mi SW 10.4 mph - N/A   Clear
5:53 PM 64.0 °F - 10.0 °F 12% 29.93 in 10.0 mi West 11.5 mph - N/A   Clear
6:53 PM 61.0 °F - 12.9 °F 15% 29.95 in 10.0 mi WSW 10.4 mph - N/A   Clear
7:53 PM 57.9 °F - 12.9 °F 17% 29.95 in 10.0 mi WSW 11.5 mph - N/A   Clear
8:53 PM 55.9 °F - 12.9 °F 18% 29.96 in 10.0 mi SSW 4.6 mph - N/A   Clear
9:53 PM 50.0 °F - 12.0 °F 22% 29.96 in 10.0 mi West 6.9 mph - N/A   Clear
10:53 PM 51.1 °F - 10.9 °F 20% 29.97 in 10.0 mi Calm Calm - N/A   Clear
11:53 PM 45.0 °F - 9.0 °F 23% 29.96 in 10.0 mi Calm Calm - N/A   Clear